This demonstration page uses our WeatherBlox Daily Observations layout. Learn more.

41.55636, -103.73856

Hourly Observations for June 5, 2017

Temp ( °F °C ) Dew Point ( °F °C ) Humidity (%) Winds ( mph kmh ) Pressure ( in mb ) Visibility ( mi km ) Precip ( " mm )
12:53 am 00:53 Clear 58 14.4 49 9.4 72 72 E 8 13 29.85 1011 10 16.0934 0 0
1:53 am 01:53 Clear 59 15 50 10 72 72 E 9 15 29.84 1011 10 16.0934 0 0
2:53 am 02:53 Clear 59 15 50 10 72 72 E 9 15 29.83 1010 10 16.0934 0 0
3:53 am 03:53 Clear 57 13.9 49 9.4 74 74 E 7 11 29.83 1010 10 16.0934 0 0
4:53 am 04:53 Clear 58 14.4 50 10 75 75 E 8 13 29.83 1010 10 16.0934 0 0
5:53 am 05:53 Sunny 58 14.4 50 10 75 75 E 10 17 29.83 1010 10 16.0934 0 0
6:53 am 06:53 Sunny 64 17.8 52 11.1 65 65 E 10 17 29.83 1010 10 16.0934 0 0
7:53 am 07:53 Sunny 70 21.1 54 12.2 57 57 ESE 9 15 29.83 1010 10 16.0934 0 0
8:53 am 08:53 Sunny 74 23.3 55 12.8 52 52 ESE 9 15 29.84 1011 10 16.0934 0 0
9:53 am 09:53 Sunny 78 25.6 57 13.9 48 48 SE 12 19 29.84 1010 10 16.0934 0 0
10:53 am 10:53 Sunny 83 28.3 54 12.2 37 37 SSE 13 20 29.83 1010 10 16.0934 0 0
11:53 am 11:53 Sunny 86 30 50 10 29 29 SE 15 24 29.83 1010 10 16.0934 0 0
12:53 pm 12:53 Sunny 88 31.1 49 9.4 26 26 SSE 9 15 29.82 1010 10 16.0934 0 0
1:53 pm 13:53 Sunny 88 31.1 51 10.6 28 28 ESE 16 26 29.8 1009 10 16.0934 0 0
2:53 pm 14:53 Sunny 88 31.1 50 10 27 27 SE 16 26 29.78 1009 10 16.0934 0 0
3:53 pm 15:53 Sunny 88 31.1 50 10 27 27 SE 12 19 29.78 1008 10 16.0934 0 0
4:53 pm 16:53 Sunny 86 30 52 11.1 31 31 SSE 10 17 29.79 1009 10 16.0934 0 0
5:53 pm 17:53 Sunny 81 27.2 48 8.9 32 32 WNW 5 7 29.8 1009 10 16.0934 0 0
6:53 pm 18:53 Partly Cloudy 79 26.1 47 8.3 32 32 NNW 3 6 29.81 1009 10 16.0934 0 0
7:53 pm 19:53 Sunny 78 25.6 45 7.2 31 31 SSW 7 11 29.81 1010 10 16.0934 0 0
8:53 pm 20:53 Clear 73 22.8 44 6.7 35 35 WSW 6 9 29.85 1011 10 16.0934 0 0
9:53 pm 21:53 Clear 73 22.8 46 7.8 38 38 S 7 11 29.89 1012 10 16.0934 0 0
10:53 pm 22:53 Clear 71 21.7 46 7.8 41 41 N 15 24 29.94 1014 10 16.0934 0 0
11:53 pm 23:53 Clear 68 20 47 8.3 47 47 N 15 24 29.92 1013 10 16.0934 0 0

Powered by AerisWeather